Flag for Germany Weather past 2 weeks in Haan, North Rhine-Westphalia, Germany

Now
54 °F

Clear.


Feels Like: 54 °F
Forecast: 65 / 87 °F
Wind: 2 mph from Northwest

Location: Duesseldorf

Current Time: Aug 2, 2015 at 2:46:35 AM

Latest Report: Aug 2, 2015 at 2:20 AM


Visibility: 10 mi

Pressure: 30.07 "Hg

Humidity: 88%

Dew point: 50 °F

Location of HaanLocation

Historic Weather in Haan — Graph

°F

Haan temperature yesterday

Maximum temperature yesterday: 77 °F (at 3:20 PM)
Minimum temperature yesterday: 50 °F (at 6:20 AM)
Average temperature yesterday: 65 °F

Past Weeks' High & Low Weather Summary

 TemperatureHumidityPressure
High81 °F (Jul 24, 2:50 PM)100% (Jul 20, 6:20 AM)30.15 "Hg (Jul 20, 6:20 AM)
Low45 °F (Jul 31, 4:50 AM)30% (Jul 24, 3:50 PM)29.50 "Hg (Jul 25, 6:50 AM)
Average64 °F70%29.89 "Hg
* Reported Jul 18 1:20 AM — Aug 2 1:20 AM, Haan, Weather by CustomWeather, © 2015

Note: Actual official high and low records may vary slightly from our data, if they occured in-between our weather recording intervals... More about our weather records

Advertising

Haan weather history for previous 24 hours

 ConditionsComfort  
Time TempWeatherWind HumidityBarometerVisibility
1:20 AM
Sun, Aug 2
55 °FClear.1 mph82%30.07 "Hg10 mi
12:50 AM57 °FClear.3 mph77%30.07 "Hg10 mi
12:20 AM59 °FClear.2 mph72%30.07 "Hg10 mi
11:20 PM
Sat, Aug 1
63 °FClear.6 mph59%30.07 "Hg10 mi
10:50 PM64 °FClear.5 mph56%30.04 "Hg10 mi
10:20 PM66 °FClear.5 mph52%30.04 "Hg10 mi
9:50 PM68 °FSunny.9 mph46%30.04 "Hg10 mi
9:20 PM68 °FSunny.9 mph46%30.04 "Hg10 mi
8:50 PM70 °FSunny.6 mph43%30.01 "Hg10 mi
8:20 PM73 °FSunny.8 mph38%30.01 "Hg10 mi
7:50 PM75 °FSunny.7 mph34%29.98 "Hg10 mi
7:20 PM75 °FSunny.8 mph34%29.98 "Hg10 mi
6:50 PM77 °FSunny.9 mph32%29.98 "Hg10 mi
6:20 PM75 °FSunny.8 mph34%29.98 "Hg10 mi
5:50 PM75 °FSunny.7 mph34%29.98 "Hg10 mi
5:20 PM77 °FSunny.9 mph32%29.98 "Hg10 mi
4:50 PM75 °FSunny.8 mph34%29.98 "Hg10 mi
4:20 PM77 °FSunny.7 mph30%29.98 "Hg10 mi
3:50 PM77 °FSunny.3 mph30%29.98 "Hg10 mi
3:20 PM77 °FSunny.7 mph32%29.95 "Hg10 mi
2:50 PM75 °FPassing clouds.5 mph31%29.95 "HgN/A
2:20 PM75 °FSunny.3 mph31%29.98 "Hg10 mi
1:50 PM75 °FSunny.6 mph34%29.98 "Hg10 mi
1:20 PM73 °FSunny.2 mph36%29.98 "Hg10 mi
12:50 PM72 °FSunny.3 mph36%29.98 "Hg10 mi
12:20 PM72 °FPassing clouds.7 mph36%29.98 "HgN/A
11:50 AM72 °FPassing clouds.7 mph38%29.98 "HgN/A
11:20 AM70 °FPassing clouds.7 mph40%29.98 "HgN/A
10:50 AM68 °FSunny.5 mph46%29.98 "Hg10 mi
10:20 AM66 °FSunny.1 mph49%29.98 "Hg10 mi
9:50 AM64 °FSunny.1 mph52%29.98 "Hg10 mi
9:20 AM63 °FSunny.3 mph56%29.98 "Hg10 mi
8:50 AM59 °FSunny.3 mph63%29.98 "Hg10 mi
8:20 AM57 °FSunny.3 mph67%29.98 "Hg10 mi
7:50 AM55 °FSunny.6 mph77%29.98 "Hg10 mi
7:20 AM52 °FSunny.5 mph82%29.98 "Hg10 mi
6:50 AM50 °FClear.3 mph82%29.98 "Hg10 mi
6:20 AM50 °FClear.5 mph82%29.98 "Hg10 mi
5:50 AM52 °FPassing clouds.5 mph77%29.98 "HgN/A
5:20 AM52 °FClear.5 mph77%29.98 "Hg10 mi
4:50 AM52 °FClear.6 mph77%29.98 "Hg10 mi
4:20 AM54 °FClear.3 mph72%30.01 "Hg10 mi
3:50 AM54 °FClear.2 mph72%30.01 "Hg10 mi
3:20 AM55 °FClear.2 mph67%30.01 "Hg10 mi
2:50 AM55 °FClear.6 mph63%30.01 "Hg10 mi
2:20 AM57 °FClear.5 mph59%30.01 "Hg10 mi
Weather by CustomWeather, © 2015

See weather overviewHow to use our weather pages